TimeCDT,TemperatureF,Dew PointF,Humidity,Sea Level PressureIn,VisibilityMPH,Wind Direction,Wind SpeedMPH,Gust SpeedMPH,PrecipitationIn,Events,Conditions,WindDirDegrees,DateUTC
12:15 AM,62.6,53.6,72,29.94,10.0,SW,8.1,-,N/A,,Clear,220,2013-06-27 05:15:00
12:35 AM,62.6,53.6,72,29.94,10.0,SW,6.9,-,N/A,,Clear,230,2013-06-27 05:35:00
1:15 AM,59.0,53.6,82,29.94,10.0,SW,6.9,-,N/A,,Clear,230,2013-06-27 06:15:00
1:35 AM,59.0,53.6,82,29.94,10.0,SW,6.9,-,N/A,,Clear,230,2013-06-27 06:35:00
1:55 AM,59.0,53.6,82,29.94,10.0,WSW,9.2,-,N/A,,Clear,240,2013-06-27 06:55:00
2:15 AM,59.0,53.6,82,29.95,10.0,SW,10.4,-,N/A,,Clear,230,2013-06-27 07:15:00
2:35 AM,59.0,53.6,82,29.95,10.0,SW,8.1,-,N/A,,Clear,230,2013-06-27 07:35:00
2:55 AM,59.0,53.6,82,29.95,10.0,WSW,8.1,-,N/A,,Clear,240,2013-06-27 07:55:00
3:15 AM,57.2,53.6,88,29.96,10.0,SW,6.9,-,N/A,,Clear,220,2013-06-27 08:15:00
3:35 AM,57.2,53.6,88,29.96,10.0,SW,8.1,-,N/A,,Clear,230,2013-06-27 08:35:00
3:55 AM,57.2,51.8,82,29.96,10.0,SW,10.4,-,N/A,,Scattered Clouds,230,2013-06-27 08:55:00
4:15 AM,57.2,51.8,82,29.96,10.0,SW,10.4,-,N/A,,Mostly Cloudy,230,2013-06-27 09:15:00
4:35 AM,57.2,53.6,88,29.96,10.0,SW,10.4,-,N/A,,Partly Cloudy,230,2013-06-27 09:35:00
4:55 AM,57.2,53.6,88,29.96,10.0,SW,9.2,-,N/A,,Clear,230,2013-06-27 09:55:00
5:15 AM,55.4,53.6,94,29.96,10.0,SW,9.2,-,N/A,,Clear,230,2013-06-27 10:15:00
5:35 AM,55.4,51.8,88,29.97,10.0,WSW,9.2,-,N/A,,Clear,240,2013-06-27 10:35:00
5:55 AM,55.4,51.8,88,29.97,10.0,SW,6.9,-,N/A,,Clear,230,2013-06-27 10:55:00
6:15 AM,55.4,51.8,88,29.97,10.0,SW,6.9,-,N/A,,Clear,230,2013-06-27 11:15:00
6:35 AM,55.4,51.8,88,29.97,10.0,SW,8.1,-,N/A,,Clear,230,2013-06-27 11:35:00
6:55 AM,57.2,51.8,82,29.98,10.0,WSW,8.1,-,N/A,,Clear,240,2013-06-27 11:55:00
7:15 AM,57.2,53.6,88,29.98,10.0,WSW,6.9,-,N/A,,Clear,250,2013-06-27 12:15:00
7:35 AM,59.0,53.6,82,29.99,10.0,WSW,8.1,-,N/A,,Clear,250,2013-06-27 12:35:00
7:55 AM,60.8,53.6,77,29.99,10.0,WSW,9.2,-,N/A,,Clear,250,2013-06-27 12:55:00
8:15 AM,62.6,55.4,77,29.99,10.0,WSW,6.9,-,N/A,,Clear,250,2013-06-27 13:15:00
8:35 AM,64.4,55.4,73,29.99,10.0,SW,5.8,-,N/A,,Clear,230,2013-06-27 13:35:00
8:55 AM,66.2,55.4,68,30.00,10.0,WSW,8.1,-,N/A,,Clear,240,2013-06-27 13:55:00
9:15 AM,68.0,55.4,64,29.99,10.0,West,6.9,-,N/A,,Clear,260,2013-06-27 14:15:00
9:35 AM,69.8,57.2,64,29.99,10.0,WSW,8.1,-,N/A,,Clear,240,2013-06-27 14:35:00
9:55 AM,73.4,57.2,57,30.00,10.0,WNW,10.4,-,N/A,,Clear,290,2013-06-27 14:55:00
10:15 AM,73.4,55.4,53,29.99,10.0,WNW,11.5,-,N/A,,Clear,290,2013-06-27 15:15:00
10:35 AM,75.2,55.4,50,29.99,10.0,West,11.5,-,N/A,,Clear,280,2013-06-27 15:35:00
10:55 AM,77.0,53.6,44,29.99,10.0,West,11.5,-,N/A,,Clear,280,2013-06-27 15:55:00
11:15 AM,77.0,51.8,41,29.99,10.0,WNW,15.0,19.6,N/A,,Clear,300,2013-06-27 16:15:00
11:35 AM,77.0,51.8,41,29.99,10.0,WNW,18.4,21.9,N/A,,Clear,300,2013-06-27 16:35:00
11:55 AM,77.0,48.2,36,29.99,10.0,WNW,15.0,21.9,N/A,,Clear,300,2013-06-27 16:55:00
12:15 PM,78.8,50.0,36,30.00,10.0,WNW,16.1,20.7,N/A,,Clear,300,2013-06-27 17:15:00
12:35 PM,78.8,50.0,36,30.00,10.0,WNW,15.0,24.2,N/A,,Clear,290,2013-06-27 17:35:00
12:55 PM,78.8,50.0,36,30.00,10.0,NW,17.3,23.0,N/A,,Clear,320,2013-06-27 17:55:00
1:15 PM,80.6,50.0,34,30.00,10.0,NW,19.6,25.3,N/A,,Clear,320,2013-06-27 18:15:00
1:35 PM,80.6,50.0,34,30.00,10.0,NW,17.3,24.2,N/A,,Clear,320,2013-06-27 18:35:00
1:55 PM,80.6,51.8,37,30.00,10.0,NW,15.0,20.7,N/A,,Clear,310,2013-06-27 18:55:00
2:15 PM,80.6,53.6,39,30.00,10.0,NW,18.4,23.0,N/A,,Clear,310,2013-06-27 19:15:00
2:35 PM,80.6,51.8,37,30.00,10.0,NW,18.4,24.2,N/A,,Clear,320,2013-06-27 19:35:00
2:55 PM,80.6,50.0,34,30.01,10.0,NW,16.1,24.2,N/A,,Clear,320,2013-06-27 19:55:00
3:15 PM,80.6,50.0,34,30.01,10.0,NW,18.4,27.6,N/A,,Clear,320,2013-06-27 20:15:00
3:35 PM,80.6,50.0,34,30.01,10.0,NNW,18.4,27.6,N/A,,Clear,330,2013-06-27 20:35:00
3:55 PM,80.6,50.0,34,30.01,10.0,NNW,18.4,28.8,N/A,,Clear,330,2013-06-27 20:55:00
4:15 PM,80.6,50.0,34,30.01,10.0,NW,18.4,23.0,N/A,,Clear,310,2013-06-27 21:15:00
4:35 PM,80.6,50.0,34,30.02,10.0,NW,16.1,26.5,N/A,,Clear,320,2013-06-27 21:35:00
4:55 PM,80.6,50.0,34,30.02,10.0,NNW,18.4,25.3,N/A,,Clear,330,2013-06-27 21:55:00
5:15 PM,80.6,50.0,34,30.02,10.0,NW,17.3,24.2,N/A,,Clear,320,2013-06-27 22:15:00
5:35 PM,80.6,50.0,34,30.02,10.0,NW,19.6,26.5,N/A,,Clear,320,2013-06-27 22:35:00
5:55 PM,80.6,50.0,34,30.02,10.0,NNW,17.3,24.2,N/A,,Clear,330,2013-06-27 22:55:00
6:15 PM,80.6,50.0,34,30.02,10.0,NW,16.1,23.0,N/A,,Clear,320,2013-06-27 23:15:00
6:35 PM,78.8,51.8,39,30.02,10.0,NW,16.1,20.7,N/A,,Clear,320,2013-06-27 23:35:00
6:55 PM,78.8,53.6,42,30.02,10.0,NNW,13.8,19.6,N/A,,Clear,330,2013-06-27 23:55:00
7:15 PM,77.0,53.6,44,30.03,10.0,NW,12.7,19.6,N/A,,Clear,320,2013-06-28 00:15:00
7:35 PM,77.0,53.6,44,30.03,10.0,NW,15.0,18.4,N/A,,Clear,320,2013-06-28 00:35:00
7:55 PM,77.0,53.6,44,30.03,10.0,NW,13.8,18.4,N/A,,Clear,310,2013-06-28 00:55:00
8:15 PM,75.2,53.6,47,30.03,10.0,NW,10.4,-,N/A,,Clear,320,2013-06-28 01:15:00
8:35 PM,75.2,53.6,47,30.04,10.0,NW,8.1,-,N/A,,Clear,310,2013-06-28 01:35:00
8:55 PM,73.4,55.4,53,30.04,10.0,NW,8.1,-,N/A,,Clear,310,2013-06-28 01:55:00
9:15 PM,71.6,55.4,57,30.04,10.0,NW,6.9,-,N/A,,Clear,310,2013-06-28 02:15:00
9:35 PM,68.0,55.4,64,30.04,10.0,NW,5.8,-,N/A,,Clear,310,2013-06-28 02:35:00
9:55 PM,66.2,53.6,64,30.05,10.0,WNW,5.8,-,N/A,,Clear,300,2013-06-28 02:55:00
10:15 PM,64.4,55.4,73,30.05,10.0,Calm,Calm,-,N/A,,Clear,0,2013-06-28 03:15:00
10:35 PM,62.6,53.6,72,30.06,10.0,West,3.5,-,N/A,,Clear,260,2013-06-28 03:35:00
10:55 PM,62.6,55.4,77,30.06,10.0,West,4.6,-,N/A,,Clear,260,2013-06-28 03:55:00
11:15 PM,62.6,53.6,72,30.07,10.0,WSW,5.8,-,N/A,,Clear,240,2013-06-28 04:15:00
11:35 PM,62.6,53.6,72,30.07,10.0,WSW,5.8,-,N/A,,Clear,240,2013-06-28 04:35:00
11:55 PM,57.2,53.6,88,30.07,10.0,SW,3.5,-,N/A,,Clear,220,2013-06-28 04:55:00